Weather Roundup
Issued by NWS

Home | Current Version | Previous Version | Graphics & Text | Print | Product List | Glossary Off
Versions: 1 2 3 4 5 6 7 8 9 10 11 12 13 14 15 16 17 18 19 20 21 22 23 24 25 26 27 28 29 30 31 32 33 34 35 36 37 38 39 40 41 42 43 44 45 46 47 48 49 50

768
NZUS93 KARX 122010
HRRWXR

CURRENT HOURLY OBSERVATIONS ACROSS
MUCH OF THE UPPER MISSISSIPPI VALLEY
NATIONAL WEATHER SERVICE LA CROSSE WI
200 PM CST TUE DEC 12 2017


...SOUTHEAST MINNESOTA...


CITY           SKY/WX    TMP DP  RH WIND       PRES   REMARKS
ROCHESTER      CLOUDY    17  10  74 SW9       30.04F WCI   6
ROCHESTER/MAYO CLOUDY    20  10  64 CALM      30.05F
WINONA           N/A     19   3  49 CALM      30.10F
AUSTIN         NOT AVBL
ALBERT LEA     CLOUDY    23  16  74 SW7       30.03F WCI  15
DODGE CENTER   CLOUDY    18  10  73 SW9       30.02F WCI   6
PRESTON        CLOUDY    19   5  55 W7        30.04F WCI  10
OWATONNA       CLOUDY    21  16  79 SW10      30.03F WCI  10
FARIBAULT      CLOUDY    21  12  68 S6        30.03F WCI  14
$$

...ELSEWHERE IN MINNESOTA...


CITY           SKY/WX    TMP DP  RH WIND       PRES   REMARKS
MINNEAPOLIS    FLURRIES  18  11  74 S8        30.04F WCI   8
INTNL FALLS    CLOUDY    11   5  77 SE6       29.89F HAZE    WCI   1
DULUTH         CLOUDY    11   4  73 CALM      29.93F
RED WING       FLURRIES  18   3  53 SW3       30.05F
REDWOOD FALLS  PTSUNNY   35  25  66 SW13      29.98F WCI  26
MANKATO        CLOUDY    23  17  78 S13       30.02F WCI  11
WORTHINGTON    CLOUDY    33  25  72 SW16      30.02F WCI  23
FAIRMONT       CLOUDY    31  23  72 W14       30.03F WCI  21
$$

...SOUTHWEST WISCONSIN...


CITY           SKY/WX    TMP DP  RH WIND       PRES   REMARKS
LA CROSSE      CLOUDY    20   2  45 NW6       30.09F WCI  12
PRAIRIE DU CHI CLOUDY    23   2  40 W8        30.10F WCI  14
BOSCOBEL       CLOUDY    21   4  47 W8        30.10F WCI  11
LONE ROCK      CLOUDY    20   5  52 W12       30.08F WCI   8
PLATTEVILLE    CLOUDY    23   6  49 NW10      30.07F WCI  12
FORT MC COY    CLOUDY    18   2  50 W7        30.08F WCI   8
CAMP DOUGLAS   MOSUNNY   18   0  45 W13       30.05F WCI   4
MAUSTON-NEW LI MOCLDY    18   2  50 NW13      30.04F WCI   4
VIROQUA        CLOUDY    17   4  59 W7        30.04F WCI   7
WIS DELLS      CLOUDY    19  -1  42 W9G16     30.04F WCI   7
$$

...ELSEWHERE IN WISCONSIN...


CITY           SKY/WX    TMP DP  RH WIND       PRES   REMARKS
MILWAUKEE      MOSUNNY   21   6  52 NW13      30.01F WCI   9
MADISON        PTSUNNY   19   1  45 W10G20    30.03F WCI   7
GREEN BAY      CLOUDY    19   4  51 W10       30.00F WCI   7
EAU CLAIRE     CLOUDY    13   1  59 W8        30.04F WCI   2
BLACK RVR FLS  CLOUDY    18  -2  41 W9        30.06F WCI   6
MEDFORD        SUNNY     12  -2  53 W9        29.96F WCI  -1
WAUSAU         SUNNY     13   1  59 W9        29.97F WCI   1
WIS RAPIDS     PTSUNNY   14   1  56 NW14      30.04F WCI  -1
MARSHFIELD     MOSUNNY   13   0  56 W13       29.99F WCI  -2
RICE LAKE      PTSUNNY   13   1  60 CALM      30.03F
$$

...NORTHEAST IOWA...


CITY           SKY/WX    TMP DP  RH WIND       PRES   REMARKS
WATERLOO       CLOUDY    25   3  38 W9        30.11F WCI  15
DUBUQUE        SUNNY     20   6  55 NW14      30.08F WCI   7
DECORAH        CLOUDY    21   7  53 W6        30.05F WCI  14
MASON CITY     CLOUDY    26  14  60 SW8       30.06F WCI  18
CHARLES CITY   CLOUDY    23   7  50 W8        30.08F WCI  14
OELWEIN        CLOUDY    23   3  42 W14G21    30.10F WCI  11
$$

...ELSEWHERE IN IOWA...


CITY           SKY/WX    TMP DP  RH WIND       PRES   REMARKS
DES MOINES     MOSUNNY   32  10  40 W9        30.14F WCI  24
IOWA CITY      SUNNY     29   3  33 W12       30.15F WCI  19
FORT DODGE     MOSUNNY   32  19  58 W10G18    30.09F WCI  24
MARSHALLTOWN   SUNNY     28   7  41 W12       30.13F WCI  18
CEDAR RAPIDS   SUNNY     27   4  37 NW16      30.11F WCI  15
$$

...NORTHERN ILLINOIS...


CITY           SKY/WX    TMP DP  RH WIND       PRES   REMARKS
CHICAGO-OHARE  MOSUNNY   22   8  55 NW16      30.03F WCI   8
CHICAGO-MIDWAY MOSUNNY   23   8  52 NW14G21   30.04F WCI  11
MOLINE         SUNNY     29   5  36 NW14      30.11F WCI  18
ROCKFORD       PTSUNNY   21   7  54 W14       30.08F WCI   8
PEORIA         SUNNY     29   5  36 W13G24    30.12F WCI  19
$$

NOTE: "FAIR" INDICATES FEW OR NO CLOUDS BELOW 12,000 FEET WITH NO
SIGNIFICANT WEATHER AND/OR OBSTRUCTIONS TO VISIBILITY. WIND
SPEEDS ARE IN MILES-PER-HOUR.




USA.gov is the U.S. government's official web portal to all federal, state and local government web resources and services.